When you browse on this site, cookies collect data to enhance your experience and personalize the content and advertising you see.
Visit our Privacy Policy to learn more. By continuing to use the site, you agree to this use of cookies and data.
EN

Hourly Weather Godzieszow

Today, 21 September, Monday

Time Temperature Precipitation Wind Pressure Humidity
00:00 +13°C° 0 mm 1 mps 742 mmHg 78%
01:00 +13°C° 0 mm 1 mps 742 mmHg 78%
02:00 +13°C° 0 mm 1 mps 742 mmHg 77%
03:00 +12°C° 0 mm 1 mps 742 mmHg 76%
04:00 +12°C° 0 mm 1 mps 742 mmHg 74%
05:00 +13°C° 0 mm 1 mps 742 mmHg 73%
06:00 +13°C° 0 mm 1 mps 742 mmHg 71%
07:00 +14°C° 0 mm 1 mps 742 mmHg 70%
08:00 +16°C° 0 mm 1 mps 742 mmHg 62%
09:00 +20°C° 0 mm 1 mps 742 mmHg 54%
10:00 +22°C° 0 mm 1 mps 742 mmHg 47%
11:00 +23°C° 0 mm 1 mps 742 mmHg 44%
12:00 +24°C° 0 mm 2 mps 742 mmHg 42%
13:00 +25°C° 0 mm 2 mps 742 mmHg 40%
14:00 +25°C° 0 mm 2 mps 742 mmHg 42%
15:00 +25°C° 0 mm 2 mps 741 mmHg 45%
16:00 +25°C° 0 mm 2 mps 741 mmHg 47%
17:00 +23°C° 0 mm 2 mps 741 mmHg 53%
18:00 +20°C° 0 mm 2 mps 741 mmHg 58%
19:00 +18°C° 0 mm 2 mps 740 mmHg 64%
20:00 +17°C° 0 mm 2 mps 740 mmHg 65%
21:00 +16°C° 0 mm 2 mps 740 mmHg 65%
22:00 +16°C° 0 mm 1 mps 740 mmHg 66%
23:00 +15°C° 0 mm 1 mps 740 mmHg 65%

Tomorrow, 22 September, Tuesday

Time Temperature Precipitation Wind Pressure Humidity
00:00 +15°C° 0 mm 2 mps 740 mmHg 64%
01:00 +15°C° 0 mm 2 mps 740 mmHg 63%
02:00 +15°C° 0 mm 2 mps 739 mmHg 62%
03:00 +14°C° 0 mm 2 mps 739 mmHg 62%
04:00 +14°C° 0 mm 2 mps 739 mmHg 61%
05:00 +14°C° 0 mm 2 mps 739 mmHg 62%
06:00 +15°C° 0 mm 2 mps 739 mmHg 62%
07:00 +15°C° 0 mm 2 mps 739 mmHg 62%
08:00 +17°C° 0 mm 2 mps 739 mmHg 57%
09:00 +19°C° 0 mm 2 mps 739 mmHg 52%
10:00 +22°C° 0 mm 3 mps 739 mmHg 46%
11:00 +24°C° 0 mm 3 mps 738 mmHg 46%
12:00 +24°C° 0 mm 3 mps 738 mmHg 45%
13:00 +25°C° 0 mm 3 mps 738 mmHg 44%
14:00 +25°C° 0 mm 3 mps 737 mmHg 46%
15:00 +25°C° 0 mm 2 mps 737 mmHg 48%
16:00 +25°C° 0 mm 2 mps 737 mmHg 50%
17:00 +23°C° 0 mm 2 mps 736 mmHg 56%
18:00 +20°C° 0 mm 2 mps 736 mmHg 62%
19:00 +18°C° 0 mm 2 mps 736 mmHg 69%
20:00 +18°C° 0 mm 2 mps 736 mmHg 69%
21:00 +17°C° 0 mm 2 mps 736 mmHg 68%
22:00 +17°C° 0 mm 2 mps 735 mmHg 68%
23:00 +17°C° 0 mm 2 mps 735 mmHg 68%

Day after tomorrow, 23 September, Wednesday

Time Temperature Precipitation Wind Pressure Humidity
00:00 +18°C° 0 mm 1 mps 735 mmHg 67%
01:00 +16°C° 0 mm 1 mps 735 mmHg 67%
02:00 +16°C° 0 mm 1 mps 734 mmHg 67%
03:00 +16°C° 0 mm 1 mps 734 mmHg 67%
04:00 +16°C° 0 mm 1 mps 734 mmHg 67%
05:00 +16°C° 0 mm 1 mps 734 mmHg 67%
06:00 +16°C° 0 mm 1 mps 734 mmHg 68%
07:00 +16°C° 0 mm 2 mps 734 mmHg 68%
08:00 +18°C° 0 mm 2 mps 734 mmHg 63%
09:00 +20°C° 0 mm 2 mps 734 mmHg 59%
10:00 +23°C° 0 mm 2 mps 734 mmHg 54%
11:00 +24°C° 0 mm 2 mps 734 mmHg 53%
12:00 +25°C° 0 mm 3 mps 734 mmHg 53%
13:00 +25°C° 0 mm 3 mps 734 mmHg 52%
14:00 +25°C° 0 mm 2 mps 734 mmHg 53%
15:00 +25°C° 0 mm 2 mps 733 mmHg 54%
16:00 +25°C° 0 mm 2 mps 733 mmHg 55%
17:00 +23°C° 0 mm 2 mps 733 mmHg 60%
18:00 +21°C° 0 mm 2 mps 733 mmHg 64%
19:00 +19°C° 0 mm 2 mps 733 mmHg 69%
20:00 +18°C° 0 mm 2 mps 734 mmHg 71%
21:00 +18°C° 0 mm 2 mps 734 mmHg 73%
22:00 +17°C° 0 mm 2 mps 734 mmHg 74%
23:00 +17°C° 0 mm 2 mps 734 mmHg 75%

24 September, Thursday

Time Temperature Precipitation Wind Pressure Humidity
00:00 +17°C° 0 mm 2 mps 734 mmHg 76%
01:00 +16°C° 0 mm 2 mps 734 mmHg 76%
02:00 +16°C° 0 mm 2 mps 734 mmHg 78%
03:00 +16°C° 0 mm 2 mps 734 mmHg 79%
04:00 +15°C° 0 mm 2 mps 734 mmHg 81%
05:00 +16°C° 0 mm 2 mps 734 mmHg 81%
06:00 +16°C° 0 mm 3 mps 734 mmHg 81%
07:00 +16°C° 0 mm 3 mps 734 mmHg 81%
08:00 +18°C° 0 mm 3 mps 734 mmHg 73%
09:00 +20°C° 0 mm 4 mps 735 mmHg 65%
10:00 +22°C° 0 mm 5 mps 735 mmHg 58%
11:00 +22°C° 0 mm 5 mps 735 mmHg 56%
12:00 +23°C° 0 mm 5 mps 735 mmHg 55%
13:00 +25°C° 0 mm 5 mps 735 mmHg 53%
14:00 +23°C° 0.2 mm 4 mps 735 mmHg 56%
15:00 +23°C° 0.2 mm 4 mps 735 mmHg 58%
16:00 +24°C° 0.2 mm 3 mps 735 mmHg 61%
17:00 +21°C° 0 mm 2 mps 735 mmHg 67%
18:00 +19°C° 0 mm 2 mps 735 mmHg 74%
19:00 +18°C° 0 mm 1 mps 734 mmHg 80%
20:00 +18°C° 0 mm 1 mps 734 mmHg 81%
21:00 +18°C° 0 mm 1 mps 734 mmHg 82%
22:00 +16°C° 0 mm 2 mps 734 mmHg 83%
23:00 +16°C° 0 mm 1 mps 733 mmHg 83%

25 September, Friday

Time Temperature Precipitation Wind Pressure Humidity
00:00 +16°C° 0 mm 1 mps 733 mmHg 83%
01:00 +16°C° 0 mm 1 mps 732 mmHg 83%
02:00 +15°C° 0 mm 1 mps 731 mmHg 83%
03:00 +15°C° 0 mm 1 mps 731 mmHg 84%
04:00 +15°C° 0 mm 2 mps 730 mmHg 84%
05:00 +16°C° 0 mm 2 mps 730 mmHg 83%
06:00 +16°C° 0 mm 2 mps 729 mmHg 81%
07:00 +17°C° 0 mm 2 mps 729 mmHg 80%
08:00 +17°C° 0 mm 2 mps 729 mmHg 79%
09:00 +18°C° 0 mm 3 mps 729 mmHg 77%
10:00 +18°C° 0 mm 3 mps 729 mmHg 76%
11:00 +17°C° 1.6 mm 3 mps 728 mmHg 82%
12:00 +16°C° 1.6 mm 3 mps 728 mmHg 88%
13:00 +14°C° 1.6 mm 3 mps 728 mmHg 95%
14:00 +14°C° 2.1 mm 3 mps 728 mmHg 94%
15:00 +14°C° 2.1 mm 3 mps 728 mmHg 94%
16:00 +13°C° 2.1 mm 3 mps 728 mmHg 94%
17:00 +13°C° 2.2 mm 4 mps 728 mmHg 94%
18:00 +12°C° 2.2 mm 4 mps 728 mmHg 93%
19:00 +10°C° 2.2 mm 5 mps 729 mmHg 93%
20:00 +11°C° 0.5 mm 4 mps 729 mmHg 92%
21:00 +11°C° 0.5 mm 3 mps 729 mmHg 92%
22:00 +12°C° 0.5 mm 2 mps 730 mmHg 91%
23:00 +12°C° 0 mm 2 mps 730 mmHg 91%

26 September, Saturday

Time Temperature Precipitation Wind Pressure Humidity
00:00 +12°C° 0 mm 2 mps 730 mmHg 90%
01:00 +12°C° 0 mm 2 mps 731 mmHg 90%
02:00 +10°C° 0 mm 2 mps 731 mmHg 89%
03:00 +9°C° 0 mm 2 mps 731 mmHg 88%
04:00 +9°C° 0 mm 2 mps 731 mmHg 87%
05:00 +9°C° 0 mm 2 mps 731 mmHg 86%
06:00 +10°C° 0 mm 1 mps 731 mmHg 85%
07:00 +10°C° 0 mm 1 mps 731 mmHg 83%
08:00 +11°C° 0 mm 1 mps 732 mmHg 78%
09:00 +12°C° 0 mm 2 mps 732 mmHg 73%
10:00 +13°C° 0 mm 2 mps 732 mmHg 67%
11:00 +14°C° 0.2 mm 2 mps 732 mmHg 65%
12:00 +14°C° 0.2 mm 2 mps 732 mmHg 63%
13:00 +14°C° 0.2 mm 2 mps 732 mmHg 62%
14:00 +13°C° 1.3 mm 2 mps 733 mmHg 69%
15:00 +10°C° 1.3 mm 3 mps 733 mmHg 77%
16:00 +9°C° 1.3 mm 3 mps 733 mmHg 85%
17:00 +9°C° 0.5 mm 2 mps 733 mmHg 86%
18:00 +9°C° 0.5 mm 2 mps 734 mmHg 87%
19:00 +10°C° 0.5 mm 1 mps 734 mmHg 87%
20:00 +9°C° 0.2 mm 2 mps 734 mmHg 86%
21:00 +9°C° 0.2 mm 2 mps 734 mmHg 85%
22:00 +8°C° 0.2 mm 2 mps 734 mmHg 84%
23:00 +8°C° 0.1 mm 2 mps 734 mmHg 84%
Show more